Location: Slidell
(30.2789°N, 89.7378°W)
Time: 17:41:29
(UTC-05:00)

Daily predictions for brighter satellites

Satellite Brightness Start Highest point End
(mag) Time Altitude Azimuth Time Altitude Azimuth Time Altitude Azimuth
Meteosat 1 Rocket2 4.3 19:51:41 10° SW 19:55:53 35° SSE 20:01:51 10° E
SeaSat 1 3.1 19:54:02 10° NE 19:58:27 33° ESE 20:02:50 10° S
Sich 1 Rocket 4.2 19:55:14 10° SSW 19:59:33 62° W 20:03:55 10° N
EXPRESS MD2 4.3 20:01:04 10° W 20:03:00 27° NW 20:05:28 10° NNE
Okean 3 3.7 19:59:29 10° N 20:03:45 76° W 20:08:02 10° S
Cosmos 2026 Rocket 4.1 20:01:03 10° S 20:07:16 65° E 20:13:34 10° NNE
Atlas Centaur 2 3.0 19:58:59 10° W 20:07:31 90° SSW 20:14:53 10° E
H-2A R/B 2.7 20:05:48 10° SSE 20:09:37 77° ENE 20:13:24 10° N
ALOS 3.3 20:08:59 10° S 20:13:29 48° W 20:18:00 10° NNW
CZ-4C R/B 3.2 20:09:23 10° NNW 20:16:57 81° WSW 20:25:02 10° SSE
Cosmos 1655 Rocket 4.1 20:11:28 10° S 20:17:33 58° E 20:23:45 10° NNE
Skynet4D Del rocket 4.2 20:11:19 10° WSW 20:18:31 65° S 20:24:15 13° E
Palapa 6 Rocket 4.4 20:18:29 10° WSW 20:23:16 38° S 20:27:59 15° ESE
Cosmos 1812 3.1 20:20:37 10° NNW 20:24:28 67° W 20:28:17 10° S
BREEZE M DEB (TANK) 4.2 20:11:52 10° SSW 20:29:47 56° SE 20:34:14 10° ENE
Cosmos 2297 Rocket 4.0 20:25:20 10° NW 20:30:15 31° WSW 20:35:09 10° SSW
USA 186 2.3 20:28:06 14° SE 20:30:42 43° ENE 20:33:55 10° N
Cosmos 1602 3.7 20:27:09 10° S 20:30:56 59° E 20:34:43 10° NNE
Okean 2 Rocket 3.5 20:26:32 10° SSW 20:30:58 67° W 20:35:28 10° N
Meteor 1-11 Rocket 4.1 20:25:44 10° SSE 20:31:18 46° E 20:36:48 10° NNE
Envisat 3.5 20:27:41 11° SE 20:32:11 41° ENE 20:36:55 10° N
GOES 2 Rocket 4.1 20:26:37 10° W 20:32:15 43° SSW 20:35:35 17° SE
GPS 2-05 Rocket1 4.2 20:29:51 10° WNW 20:32:56 31° N 20:35:41 11° ENE
SJ-6B 4.2 20:33:17 10° S 20:37:04 41° W 20:40:56 10° NNW
NOSS 2-3 (D) 3.7 20:33:19 10° SSW 20:37:47 63° ESE 20:42:40 10° NE
OAO 1 Rocket 4.4 20:32:55 10° WSW 20:38:17 90° SSW 20:43:16 12° ENE
USA 267 3.3 20:32:47 11° SE 20:39:10 80° SW 20:45:46 10° NW
Resurs 1-3 3.6 20:44:02 10° SSE 20:48:25 89° W 20:52:49 10° NNW
Cosmos 2322 Rocket 2.2 20:43:22 10° SSW 20:49:04 87° ESE 20:54:48 10° NNE
Cosmos 2263 Rocket 3.4 20:49:55 10° N 20:54:30 24° ENE 20:55:53 22° E
Delta 2 Rocket 3.3 20:51:02 10° WSW 20:55:04 85° SSE 20:57:46 24° ENE
Cosmos 1939 Rocket 3.0 20:56:10 35° SE 20:57:26 50° ENE 21:01:16 10° N
SL-16 R/B 2.4 20:54:10 10° SSW 20:59:48 75° WNW 21:05:29 10° NNE
Cosmos 44 Rocket 3.1 20:55:23 10° NNW 21:00:10 81° ENE 21:02:28 31° SSE
ATLAS 2AS CENTAUR R/B 2.9 20:56:06 10° SSW 21:03:29 75° ESE 21:11:30 10° NNE
Cosmos 1536 2.7 21:01:09 23° S 21:03:33 67° E 21:07:35 10° NNE
YAOGAN 6 3.0 21:08:45 42° NE 21:08:45 42° NE 21:11:46 10° N
Meteor 1-19 Rocket 4.2 21:03:10 10° N 21:09:02 83° E 21:12:56 22° S
Cosmos 2322 4.1 21:08:48 36° ESE 21:09:08 36° ESE 21:14:16 10° NE
Lacrosse 5 rocket 1.0 21:07:23 10° NNW 21:11:07 70° NE 21:11:32 63° E
Cosmos 1331 Rocket 4.3 21:14:52 41° E 21:14:52 41° E 21:19:29 10° NNE
Cosmos 1850 Rocket 4.3 21:09:33 10° N 21:14:43 50° ENE 21:15:44 44° ESE
Okean 1 Rocket 2.9 21:15:27 56° SE 21:16:02 63° E 21:20:21 10° NNE
H-2A ROCKET BODY 3.9 21:14:21 10° SSW 21:15:50 13° S 21:15:50 13° S
Resurs 01 Rocket 3.2 21:15:36 10° SSW 21:19:35 33° W 21:23:36 10° NW
Cosmos 1300 Rocket 3.7 21:17:22 15° SSW 21:20:53 69° W 21:25:10 10° N
Helios 1B rocket 2.3 21:18:18 10° NNE 21:22:25 88° ESE 21:23:21 53° S
S3M 4.2 21:16:39 10° N 21:22:54 72° W 21:28:13 15° S
Cosmos 2360 Rocket 2.1 21:17:33 10° S 21:23:06 64° ESE 21:28:40 10° NNE
Cosmos 2266 Rocket 3.9 21:18:47 10° S 21:24:50 86° W 21:30:54 10° N
Cosmos 1553 Rocket 4.3 21:19:15 10° NNW 21:25:17 62° W 21:30:41 13° S
Meteor 1-5 Rocket 4.0 21:24:35 20° S 21:28:26 89° W 21:33:45 10° N
Cosmos 2315 Rocket 4.2 21:25:29 10° N 21:31:28 46° E 21:31:52 46° E
Nadezhda 2 Rocket 4.4 21:31:03 50° SE 21:32:21 60° E 21:38:26 10° NNE
Cosmos 1025 Rocket 4.4 21:30:41 10° NNE 21:32:56 26° NNE 21:32:56 26° NNE
Lacrosse 5 3.0 21:35:00 10° WSW 21:39:50 44° NW 21:44:41 10° NNE
NOAA 11 4.1 21:41:12 64° E 21:41:21 65° ENE 21:46:48 10° N
Cosmos 44 4.3 21:38:41 10° NW 21:42:49 36° WSW 21:43:43 33° SW
Meteor 2-4 Rocket 3.9 21:38:27 10° NNW 21:44:00 68° W 21:45:56 41° SSW
DELTA 2 R/B (1) 3.4 21:43:00 10° WNW 21:48:38 87° SSW 21:48:44 86° SSE
Milstar 3 4.5 21:35:39 10° W 21:52:54 45° SW 21:57:12 34° S
Meteosat 1 Rocket2 4.1 21:50:40 10° WSW 21:56:28 74° S 21:57:15 68° SE
Atlas Centaur 2 2.5 21:49:25 10° W 21:57:23 81° SSW 21:58:01 74° SE
Helios 1A 4.1 21:58:19 42° W 21:58:19 42° W 22:01:58 10° NNW
ERS-1 Rocket 3.4 22:06:24 58° NNW 22:06:24 58° NNW 22:10:29 10° NNW
MetOp-A 4.4 22:06:28 63° N 22:06:28 63° N 22:10:57 10° NNW
H-2A R/B 3.5 22:10:30 28° NNE 22:10:30 28° NNE 22:13:02 10° N
Skynet4D Del rocket 4.4 22:04:38 10° W 22:09:52 48° SW 22:09:52 48° SW
Terra 4.4 22:29:05 13° NNE 22:29:05 13° NNE 22:29:37 10° NNE
ARGOS 4.0 22:27:18 46° NNW 22:27:18 46° NNW 22:31:03 10° NNW
ATLAS 3B R/B 3.2 22:20:10 10° NNW 22:25:20 45° NNE 22:25:20 45° NNE
Cosmos 2263 Rocket 3.5 22:33:17 10° NW 22:37:36 34° W 22:37:36 34° W
Cosmos 1844 Rocket 4.5 22:41:11 10° N 22:43:39 25° N 22:43:39 25° N
Intelsat 5-1 Rocket 4.3 22:33:48 10° W 22:45:58 47° SW 22:45:58 47° SW
COSMOS 2428 4.5 23:04:15 27° NNW 23:04:15 27° NNW 23:07:15 10° N
